Location: Caltech
(34.1382°N, 118.1253°W)
Time: 02:07:36
(UTC-07:00)

Aureole 2 Rocket - Visible Passes

Search period start: 02 September 2014 00:00
Search period end: 12 September 2014 00:00
Orbit: 349 x 761 km, 73.9° (Epoch: 01 September)

Date Brightness Start Highest point End Pass type
(mag) Time Alt. Az. Time Alt. Az. Time Alt. Az.
02 Sep 6.8 05:54:16 10° ESE 05:55:56 12° E 05:57:35 10° ENE visible
03 Sep 6.5 05:50:09 10° SE 05:52:55 15° E 05:55:38 10° ENE visible
04 Sep 6.3 05:46:25 10° SE 05:49:52 18° E 05:53:15 10° NE visible
05 Sep 6.1 05:42:51 10° SSE 05:46:48 22° E 05:50:38 10° NE visible
06 Sep 5.6 05:39:22 10° SSE 05:43:43 27° E 05:47:52 10° NE visible
07 Sep 5.2 05:35:57 10° SSE 05:40:35 34° ESE 05:44:58 10° NE visible
08 Sep 4.7 05:32:35 10° S 05:37:25 42° ESE 05:41:59 10° NNE visible
09 Sep 4.2 05:29:14 10° S 05:34:14 52° ESE 05:38:54 10° NNE visible
10 Sep 3.8 05:25:55 10° S 05:31:00 65° ESE 05:35:43 10° NNE visible
11 Sep 3.4 05:22:37 10° SSW 05:27:45 81° ESE 05:32:27 10° NNE visible
